TimeEST,TemperatureF,Dew PointF,Humidity,Sea Level PressureIn,VisibilityMPH,Wind Direction,Wind SpeedMPH,Gust SpeedMPH,PrecipitationIn,Events,Conditions,WindDirDegrees,DateUTC
12:14 AM,48.2,46.4,93,30.47,1.0,Calm,Calm,-,N/A,,Mist,0,2012-11-12 05:14:00
12:16 AM,48.2,46.4,93,30.47,2.0,Calm,Calm,-,N/A,,Partly Cloudy,0,2012-11-12 05:16:00
12:31 AM,48.2,48.2,100,30.46,1.5,Calm,Calm,-,N/A,,Clear,0,2012-11-12 05:31:00
12:41 AM,48.2,46.4,93,30.46,0.8,Calm,Calm,-,N/A,,Clear,0,2012-11-12 05:41:00
12:51 AM,48.2,48.2,100,30.45,2.0,Calm,Calm,-,N/A,,Clear,0,2012-11-12 05:51:00
12:52 AM,48.2,48.2,100,30.45,3.0,Calm,Calm,-,N/A,,Clear,0,2012-11-12 05:52:00
12:54 AM,48.9,48.0,97,30.45,5.0,Calm,Calm,-,N/A,,Clear,0,2012-11-12 05:54:00
1:07 AM,50.0,48.2,94,30.45,2.5,Calm,Calm,-,N/A,,Clear,0,2012-11-12 06:07:00
1:15 AM,51.8,48.2,88,30.45,7.0,ESE,3.5,-,N/A,,Clear,110,2012-11-12 06:15:00
1:54 AM,57.0,54.0,89,30.43,10.0,ESE,5.8,-,N/A,,Clear,110,2012-11-12 06:54:00
2:54 AM,52.0,51.1,97,30.43,5.0,Calm,Calm,-,N/A,,Clear,0,2012-11-12 07:54:00
3:34 AM,51.8,51.8,100,30.42,0.8,Calm,Calm,-,N/A,,Clear,0,2012-11-12 08:34:00
3:49 AM,51.8,51.8,100,30.42,1.0,Calm,Calm,-,N/A,,Clear,0,2012-11-12 08:49:00
3:54 AM,51.1,50.0,96,30.41,0.8,Calm,Calm,-,N/A,,Clear,0,2012-11-12 08:54:00
3:59 AM,51.8,50.0,94,30.41,2.0,East,3.5,-,N/A,,Clear,80,2012-11-12 08:59:00
4:06 AM,51.8,48.2,88,30.41,6.0,Calm,Calm,-,N/A,,Clear,0,2012-11-12 09:06:00
4:48 AM,51.8,51.8,100,30.42,1.8,Calm,Calm,-,N/A,,Clear,0,2012-11-12 09:48:00
4:54 AM,51.1,50.0,96,30.42,0.8,Calm,Calm,-,N/A,,Clear,0,2012-11-12 09:54:00
5:02 AM,50.0,50.0,100,30.42,0.5,Calm,Calm,-,N/A,Fog,Fog,0,2012-11-12 10:02:00
5:23 AM,50.0,50.0,100,30.41,0.2,Calm,Calm,-,N/A,Fog,Fog,0,2012-11-12 10:23:00
5:27 AM,50.0,48.2,94,30.41,0.2,Calm,Calm,-,N/A,Fog,Fog,0,2012-11-12 10:27:00
5:33 AM,51.8,51.8,100,30.41,0.8,Calm,Calm,-,N/A,,Mist,0,2012-11-12 10:33:00
5:43 AM,50.0,50.0,100,30.41,0.5,Calm,Calm,-,N/A,Fog,Fog,0,2012-11-12 10:43:00
5:54 AM,50.0,48.9,96,30.42,8.0,Calm,Calm,-,N/A,Fog,Shallow Fog,0,2012-11-12 10:54:00
6:54 AM,50.0,50.0,100,30.42,8.0,Calm,Calm,-,N/A,Fog,Shallow Fog,0,2012-11-12 11:54:00
7:54 AM,55.9,55.0,97,30.42,8.0,Calm,Calm,-,N/A,Fog,Shallow Fog,0,2012-11-12 12:54:00
8:54 AM,63.0,57.9,84,30.42,10.0,East,4.6,-,N/A,,Partly Cloudy,90,2012-11-12 13:54:00
9:54 AM,69.1,60.1,73,30.41,10.0,Calm,Calm,-,N/A,,Clear,0,2012-11-12 14:54:00
10:54 AM,73.0,61.0,66,30.39,10.0,SE,8.1,-,N/A,,Clear,130,2012-11-12 15:54:00
11:54 AM,73.9,61.0,64,30.37,10.0,ESE,8.1,-,N/A,,Scattered Clouds,120,2012-11-12 16:54:00
12:54 PM,73.9,60.1,62,30.34,10.0,SE,6.9,-,N/A,,Mostly Cloudy,130,2012-11-12 17:54:00
1:54 PM,75.9,60.1,58,30.32,10.0,ESE,9.2,-,N/A,,Mostly Cloudy,120,2012-11-12 18:54:00
2:54 PM,75.9,61.0,60,30.30,10.0,SE,6.9,-,N/A,,Mostly Cloudy,140,2012-11-12 19:54:00
3:54 PM,73.9,62.1,66,30.29,10.0,SSE,9.2,-,N/A,,Mostly Cloudy,160,2012-11-12 20:54:00
4:54 PM,72.0,62.1,71,30.29,10.0,SSE,4.6,-,N/A,,Overcast,160,2012-11-12 21:54:00
5:41 PM,66.2,64.4,94,30.29,1.8,SSW,12.7,19.6,0.11,Rain,Heavy Rain,210,2012-11-12 22:41:00
5:47 PM,66.2,64.4,94,30.29,1.5,SSW,6.9,19.6,0.15,Rain,Heavy Rain,200,2012-11-12 22:47:00
5:54 PM,66.0,64.9,96,30.28,3.0,SW,6.9,-,0.16,Rain,Rain,230,2012-11-12 22:54:00
6:01 PM,66.2,64.4,94,30.28,6.0,SSW,3.5,-,0.00,Rain,Light Rain,210,2012-11-12 23:01:00
6:35 PM,66.2,64.4,94,30.29,10.0,SSW,4.6,-,0.01,,Overcast,210,2012-11-12 23:35:00
6:54 PM,66.0,64.0,93,30.30,9.0,South,10.4,-,0.01,Rain,Light Rain,190,2012-11-12 23:54:00
7:54 PM,64.9,62.1,90,30.28,10.0,Variable,3.5,-,0.00,,Overcast,0,2012-11-13 00:54:00
8:54 PM,64.9,62.1,90,30.27,10.0,SSE,3.5,-,N/A,,Overcast,150,2012-11-13 01:54:00
9:54 PM,64.9,63.0,93,30.26,10.0,South,4.6,-,N/A,,Mostly Cloudy,170,2012-11-13 02:54:00